{"data":{"norad_id":51736,"epoch":"2026-09-20T02:06:34.394112Z","epoch_age_seconds":87242,"freshness":"FRESH","line1":"1 51736U 22016Y   26263.08789808  .00000008  00000+0  12026-4 0  9992","line2":"2 51736  53.1591 152.7608 0001215  87.3759 272.7381 15.31697289253095","mean_motion":15.31697289,"eccentricity":0.0001215,"inclination_deg":53.1591,"raan_deg":152.7608,"arg_perigee_deg":87.3759,"mean_anomaly_deg":272.7381,"bstar":1.2026e-5,"rev_number":25309,"period_min":94.013354358036,"perigee_km":469.91593705069,"apogee_km":471.5802161243,"semimajor_km":6848.8850765875,"source":"CELESTRAK","updated_at":"2026-09-20T09:00:39.930350Z"}}